Weather History for LGRP - November, 2012

Change the Weather History Date:

Sunday, November 25, 2012

  Actual Average Record
Temperature  
Mean Temperature 62 °F -  
Max Temperature 68 °F 63 °F 69 °F (1997)
Min Temperature 56 °F 52 °F 48 °F (2001)
Degree Days  
Heating Degree Days 3    
Growing Degree Days 12 (Base 50)    
Moisture  
Dew Point 53 °F    
Average Humidity 73    
Maximum Humidity 88    
Minimum Humidity 49    
Precipitation  
Precipitation 0.00 in 0.18 in - ()
Sea Level Pressure  
Sea Level Pressure 30.02 in    
Wind  
Wind Speed 2 mph ()    
Max Wind Speed 8 mph    
Max Gust Speed -    
Visibility 6.1 miles    
Events      
Averages and records for this station are not official NWS values.
T = Trace of Precipitation, MM = Missing Value Source: Averaged Metar Reports

Daily Weather History Graph

Daily Weather History Graph

Search for Another Location

Airport or City:

Trip Planner

Search our weather history database for the weather conditions in past years. The results will help you decide how hot, cold, wet, or windy it might be!

Date:

Astronomy

Nov. 25, 2012 Rise Set
Actual Time 6:55 AM EET 4:54 PM EET
Civil Twilight 6:27 AM EET 5:22 PM EET
Nautical Twilight 5:55 AM EET 5:53 PM EET
Astronomical Twilight 5:24 AM EET 6:24 PM EET
Moon 2:57 PM EET (11/25) 3:54 AM EET (11/25)
Length of Visible Light 10h 54m
Length of Day
9h 58m
Waxing Gibbous, 91% of the Moon is Illuminated
Nov 25
Waxing Gibbous
Nov 28
Full
Dec 6
Last Quarter
Dec 13
New
Dec 20
First Quarter

Hourly Weather History & Observations

Time (EET) Temp. Dew Point Humidity Pressure Visibility Wind Dir Wind Speed Gust Speed Precip Events Conditions
12:20 AM 59.0 °F 51.8 °F 77% 30.01 in 6.2 mi Calm Calm - N/A   Scattered Clouds
12:50 AM 57.2 °F 50.0 °F 77% 30.01 in 6.2 mi Calm Calm - N/A   Partly Cloudy
1:20 AM 57.2 °F 50.0 °F 77% 30.01 in 6.2 mi Calm Calm - N/A   Partly Cloudy
1:50 AM 57.2 °F 50.0 °F 77% 30.01 in 6.2 mi Calm Calm - N/A   Partly Cloudy
2:00 AM 58 °F 50 °F 66% 30.02 in 6 mi Calm Calm - -   Scattered Clouds
2:50 AM 57.2 °F 50.0 °F 77% 30.01 in 6.2 mi Calm Calm - N/A   Partly Cloudy
3:20 AM 57.2 °F 50.0 °F 77% 30.01 in 6.2 mi Calm Calm - N/A   Partly Cloudy
3:50 AM 57.2 °F 50.0 °F 77% 29.98 in 6.2 mi Calm Calm - N/A   Partly Cloudy
4:20 AM 57.2 °F 50.0 °F 77% 29.98 in 6.2 mi Calm Calm - N/A   Partly Cloudy
4:50 AM 57.2 °F 50.0 °F 77% 29.98 in 6.2 mi Calm Calm - N/A   Partly Cloudy
5:20 AM 57.2 °F 50.0 °F 77% 29.98 in 6.2 mi Calm Calm - N/A   Partly Cloudy
5:50 AM 57.2 °F 50.0 °F 77% 29.98 in 6.2 mi Calm Calm - N/A   Partly Cloudy
6:20 AM 57.2 °F 50.0 °F 77% 29.98 in 6.2 mi Calm Calm - N/A   Partly Cloudy
6:50 AM 57.2 °F 50.0 °F 77% 30.01 in - Calm Calm - N/A   Clear
7:20 AM 57.2 °F 53.6 °F 88% 30.01 in - Variable 2.3 mph - N/A   Clear
7:50 AM 57.2 °F 53.6 °F 88% 30.04 in - Variable 2.3 mph - N/A   Clear
8:00 AM 57 °F 53 °F 81% 30.04 in 6 mi 2.3 mph - -  
8:20 AM 60.8 °F 55.4 °F 82% 30.04 in - Variable 2.3 mph - N/A   Clear
8:50 AM 60.8 °F 55.4 °F 82% 30.04 in - WNW 4.6 mph - N/A   Clear
9:20 AM 60.8 °F 55.4 °F 82% 30.04 in - WNW 4.6 mph - N/A   Clear
9:50 AM 64.4 °F 59.0 °F 83% 30.04 in - WNW 5.8 mph - N/A   Clear
10:20 AM 64.4 °F 59.0 °F 83% 30.04 in - WNW 5.8 mph - N/A   Clear
10:50 AM 66.2 °F 55.4 °F 68% 30.04 in - NW 6.9 mph - N/A   Clear
11:20 AM 66.2 °F 55.4 °F 68% 30.04 in - NW 6.9 mph - N/A   Clear
11:50 AM 68.0 °F 57.2 °F 68% 30.04 in - WNW 8.1 mph - N/A   Clear
12:20 PM 68.0 °F 57.2 °F 68% 30.04 in - WNW 8.1 mph - N/A   Clear
12:50 PM 68.0 °F 51.8 °F 56% 30.01 in - WNW 8.1 mph - N/A   Clear
1:20 PM 68.0 °F 51.8 °F 56% 30.01 in - WNW 8.1 mph - N/A   Clear
1:50 PM 68.0 °F 53.6 °F 60% 30.01 in - WNW 8.1 mph - N/A   Clear
2:00 PM 68 °F 53 °F 49% 30.02 in 6 mi WNW 8.1 mph - -  
2:20 PM 68.0 °F 53.6 °F 60% 30.01 in - West 5.8 mph - N/A   Clear
2:50 PM 66.2 °F 53.6 °F 64% 30.01 in - West 5.8 mph - N/A   Clear
3:20 PM 66.2 °F 53.6 °F 64% 29.98 in - WNW 4.6 mph - N/A   Clear
3:50 PM 66.2 °F 55.4 °F 68% 29.98 in - WNW 5.8 mph - N/A   Clear
4:20 PM 66.2 °F 55.4 °F 68% 30.01 in - WNW 5.8 mph - N/A   Clear
4:50 PM 64.4 °F 55.4 °F 73% 30.01 in - WNW 5.8 mph - N/A   Clear
5:20 PM 62.6 °F 55.4 °F 77% 30.01 in - Variable 2.3 mph - N/A   Clear
5:50 PM 60.8 °F 51.8 °F 72% 30.01 in - SSW 4.6 mph - N/A   Clear
6:20 PM 62.6 °F 50.0 °F 63% 30.01 in - SSW 4.6 mph - N/A   Clear
6:50 PM 60.8 °F 51.8 °F 72% 30.01 in - SSW 5.8 mph - N/A   Clear
7:20 PM 60.8 °F 51.8 °F 72% 30.01 in - SSW 5.8 mph - N/A   Clear
7:50 PM 60.8 °F 51.8 °F 72% 30.04 in - SSW 4.6 mph - N/A   Clear
8:00 PM 60 °F 53 °F 69% 30.04 in 6 mi SSW 4.6 mph - -   Clear
8:20 PM 60.8 °F 51.8 °F 72% 30.04 in - SSW 5.8 mph - N/A   Clear
8:50 PM 60.8 °F 51.8 °F 72% 30.04 in - SSW 4.6 mph - N/A   Clear
9:20 PM 60.8 °F 51.8 °F 72% 30.04 in - SSW 4.6 mph - N/A   Clear
9:50 PM 59.0 °F 51.8 °F 77% 30.04 in - SW 3.5 mph - N/A   Clear
10:20 PM 59.0 °F 51.8 °F 77% 30.04 in - SW 3.5 mph - N/A   Clear
10:50 PM 57.2 °F 50.0 °F 77% 30.01 in - SSW 4.6 mph - N/A   Clear
11:20 PM 57.2 °F 50.0 °F 77% 30.01 in - SSW 4.6 mph - N/A   Clear
11:50 PM 57.2 °F 46.4 °F 67% 30.04 in - Calm Calm - N/A   Clear